| time (UTC) | temp F | wind direction | speed MPH | gust MPH | rain 1hr in | rain 24hr in | rain mn in | humidity % | barometer mb |
| 20260901072049 | 67 | 303 | 2.0 | 11.0 | 0.00 | 0.04 | 0.01 | 30 | 1023.1 |
| 20260901071149 | 67 | 289 | 2.0 | 11.0 | 0.00 | 0.04 | 0.01 | 32 | 1023.0 |
| 20260901070249 | 66 | 266 | 4.0 | 10.0 | 0.00 | 0.04 | 0.01 | 35 | 1023.2 |
| 20260901065349 | 66 | 288 | 1.0 | 9.0 | 0.00 | 0.04 | 0.01 | 36 | 1023.2 |
| 20260901064449 | 66 | 303 | 1.0 | 9.0 | 0.00 | 0.05 | 0.01 | 38 | 1023.0 |
| 20260901063549 | 65 | 302 | 2.0 | 9.0 | 0.00 | 0.07 | 0.01 | 40 | 1023.0 |
| 20260901062649 | 64 | 306 | 2.0 | 11.0 | 0.00 | 0.11 | 0.01 | 41 | 1023.0 |
| 20260901061749 | 64 | 303 | 2.0 | 8.0 | 0.00 | 0.13 | 0.01 | 42 | 1022.9 |
| 20260901060849 | 65 | 278 | 2.0 | 8.0 | 0.00 | 0.21 | 0.01 | 44 | 1022.9 |
| 20260901055949 | 64 | 294 | 2.0 | 9.0 | 0.00 | 0.21 | 0.01 | 46 | 1022.9 |
| 20260901055049 | 64 | 327 | 2.0 | 8.0 | 0.00 | 0.33 | 0.01 | 48 | 1022.7 |
| 20260901054149 | 64 | 329 | 2.0 | 6.0 | 0.00 | 0.40 | 0.01 | 50 | 1022.7 |
| 20260901053249 | 63 | 319 | 1.0 | 10.0 | 0.00 | 0.40 | 0.01 | 53 | 1022.7 |
| 20260901051449 | 60 | 317 | 3.0 | 8.0 | 0.00 | 0.40 | 0.01 | 62 | 1022.7 |
| 20260901050549 | 58 | 314 | 1.0 | 5.0 | 0.00 | 0.40 | 0.01 | 66 | 1022.6 |
| 20260901044749 | 58 | 320 | 1.0 | 4.0 | 0.00 | 0.40 | 0.01 | 67 | 1022.5 |
| 20260901043849 | 57 | 314 | 0.0 | 4.0 | 0.00 | 0.40 | 0.01 | 68 | 1022.5 |
| 20260901042949 | 57 | 316 | 1.0 | 4.0 | 0.00 | 0.40 | 0.01 | 68 | 1022.6 |
| 20260901041149 | 56 | 341 | 0.0 | 6.0 | 0.00 | 0.40 | 0.01 | 67 | 1022.4 |
| 20260901040249 | 56 | 331 | 1.0 | 5.0 | 0.00 | 0.40 | 0.01 | 67 | 1022.3 |
| 20260901034449 | 56 | 322 | 1.0 | 6.0 | 0.00 | 0.40 | 0.01 | 66 | 1022.4 |
| 20260901033549 | 56 | 309 | 2.0 | 6.0 | 0.00 | 0.40 | 0.01 | 66 | 1022.2 |
| 20260901031749 | 56 | 305 | 1.0 | 4.0 | 0.00 | 0.40 | 0.01 | 64 | 1022.1 |
| 20260901030849 | 56 | 337 | 1.0 | 4.0 | 0.00 | 0.40 | 0.01 | 63 | 1022.3 |
| 20260901025949 | 56 | 313 | 1.0 | 4.0 | 0.00 | 0.40 | 0.01 | 62 | 1022.1 |
| 20260901025049 | 56 | 302 | 0.0 | 4.0 | 0.00 | 0.40 | 0.01 | 61 | 1022.1 |
| 20260901024149 | 56 | 293 | 2.0 | 4.0 | 0.00 | 0.40 | 0.01 | 59 | 1022.2 |
| 20260901023249 | 56 | 300 | 2.0 | 4.0 | 0.00 | 0.40 | 0.01 | 57 | 1022.2 |
| 20260901022349 | 56 | 314 | 2.0 | 4.0 | 0.00 | 0.40 | 0.01 | 56 | 1022.2 |
| 20260901021449 | 56 | 314 | 0.0 | 2.0 | 0.01 | 0.40 | 0.01 | 54 | 1022.1 |
| 20260901020549 | 57 | 202 | 0.0 | 2.0 | 0.01 | 0.40 | 0.01 | 54 | 1022.1 |
| 20260901015649 | 57 | 83 | 0.0 | 2.0 | 0.01 | 0.40 | 0.01 | 54 | 1022.1 |
| 20260901014749 | 57 | 14 | 1.0 | 3.0 | 0.01 | 0.40 | 0.01 | 54 | 1022.1 |
| 20260901013849 | 57 | 1 | 0.0 | 3.0 | 0.01 | 0.40 | 0.01 | 53 | 1022.0 |
| 20260901012949 | 57 | 3 | 1.0 | 3.0 | 0.01 | 0.40 | 0.01 | 52 | 1021.9 |
| 20260901012049 | 58 | 322 | 0.0 | 6.0 | 0.01 | 0.40 | 0.01 | 51 | 1021.9 |
| 20260901011149 | 58 | 250 | 2.0 | 6.0 | 0.00 | 0.39 | 0.00 | 50 | 1022.0 |
| 20260901010249 | 58 | 272 | 0.0 | 6.0 | 0.00 | 0.39 | 0.00 | 48 | 1022.0 |
| 20260901005349 | 58 | 275 | 1.0 | 4.0 | 0.00 | 0.39 | 0.00 | 47 | 1021.9 |
| 20260901004449 | 59 | 284 | 1.0 | 4.0 | 0.00 | 0.39 | 0.00 | 46 | 1021.8 |
| 20260901003549 | 59 | 302 | 2.0 | 4.0 | 0.00 | 0.39 | 0.00 | 45 | 1021.9 |
| 20260901002649 | 59 | 272 | 1.0 | 4.0 | 0.00 | 0.39 | 0.00 | 45 | 1021.6 |
| 20260901001749 | 59 | 283 | 0.0 | 3.0 | 0.00 | 0.39 | 0.00 | 45 | 1021.9 |
| 20260831235949 | 59 | 284 | 1.0 | 5.0 | 0.00 | 0.39 | 0.00 | 45 | 1022.0 |
| 20260831235049 | 58 | 306 | 0.0 | 2.0 | 0.00 | 0.39 | 0.00 | 43 | 1022.0 |
| 20260831234149 | 58 | 346 | 0.0 | 2.0 | 0.00 | 0.39 | 0.00 | 42 | 1021.9 |
| 20260831233249 | 58 | 349 | 0.0 | 3.0 | 0.00 | 0.39 | 0.00 | 41 | 1022.0 |
| 20260831232348 | 59 | 314 | 0.0 | 3.0 | 0.00 | 0.39 | 0.00 | 40 | 1021.8 |
| 20260831230549 | 60 | 320 | 0.0 | 4.0 | 0.00 | 0.39 | 0.00 | 37 | 1022.0 |
| 20260831225649 | 60 | 1 | 0.0 | 4.0 | 0.00 | 0.39 | 0.00 | 37 | 1021.8 |
| 20260831224749 | 60 | 343 | 1.0 | 6.0 | 0.00 | 0.39 | 0.00 | 37 | 1021.8 |
| 20260831223848 | 60 | 310 | 2.0 | 6.0 | 0.00 | 0.39 | 0.00 | 37 | 1021.6 |
| 20260831222948 | 60 | 347 | 0.0 | 3.0 | 0.00 | 0.39 | 0.00 | 36 | 1021.6 |
| 20260831222049 | 61 | 277 | 1.0 | 5.0 | 0.00 | 0.39 | 0.00 | 35 | 1021.4 |
| 20260831221149 | 61 | 252 | 0.0 | 3.0 | 0.00 | 0.39 | 0.00 | 34 | 1021.4 |
| 20260831220249 | 62 | 196 | 0.0 | 3.0 | 0.00 | 0.39 | 0.00 | 33 | 1021.3 |
| 20260831215348 | 62 | 314 | 0.0 | 4.0 | 0.00 | 0.39 | 0.39 | 33 | 1021.3 |
| 20260831214449 | 62 | 294 | 1.0 | 5.0 | 0.00 | 0.39 | 0.39 | 34 | 1021.4 |
| 20260831213549 | 62 | 298 | 0.0 | 5.0 | 0.00 | 0.39 | 0.39 | 36 | 1021.3 |
| 20260831212648 | 62 | 294 | 1.0 | 7.0 | 0.00 | 0.39 | 0.39 | 40 | 1021.3 |
| 20260831211748 | 61 | 308 | 0.0 | 5.0 | 0.00 | 0.39 | 0.39 | 47 | 1021.1 |
| 20260831210849 | 60 | 314 | 0.0 | 4.0 | 0.00 | 0.39 | 0.39 | 52 | 1021.0 |
| 20260831205948 | 59 | 314 | 2.0 | 4.0 | 0.00 | 0.39 | 0.39 | 55 | 1020.8 |
| 20260831205048 | 60 | 314 | 0.0 | 2.0 | 0.00 | 0.39 | 0.39 | 55 | 1020.6 |
| 20260831203249 | 59 | 314 | 0.0 | 1.0 | 0.00 | 0.39 | 0.39 | 57 | 1020.4 |
| 20260831202348 | 59 | 314 | 0.0 | 1.0 | 0.00 | 0.39 | 0.39 | 57 | 1020.2 |
| 20260831201449 | 58 | 314 | 0.0 | 1.0 | 0.00 | 0.39 | 0.39 | 56 | 1020.1 |
| 20260831200548 | 58 | 314 | 0.0 | 2.0 | 0.01 | 0.39 | 0.39 | 55 | 1020.1 |
| 20260831195648 | 58 | 314 | 0.0 | 2.0 | 0.01 | 0.39 | 0.39 | 55 | 1020.1 |
| 20260831194749 | 59 | 314 | 0.0 | 2.0 | 0.01 | 0.39 | 0.39 | 55 | 1020.1 |
| 20260831193849 | 60 | 314 | 0.0 | 1.0 | 0.01 | 0.39 | 0.39 | 55 | 1020.0 |
| 20260831192949 | 60 | 319 | 0.0 | 2.0 | 0.01 | 0.39 | 0.39 | 56 | 1020.1 |
| 20260831192049 | 59 | 338 | 1.0 | 2.0 | 0.01 | 0.39 | 0.39 | 56 | 1020.0 |
| 20260831191149 | 58 | 351 | 0.0 | 2.0 | 0.01 | 0.39 | 0.39 | 55 | 1019.9 |
| 20260831190249 | 58 | 341 | 0.0 | 2.0 | 0.00 | 0.38 | 0.38 | 54 | 1019.8 |
| 20260831185349 | 58 | 315 | 0.0 | 2.0 | 0.00 | 0.38 | 0.38 | 53 | 1019.7 |
| 20260831184449 | 58 | 314 | 0.0 | 2.0 | 0.00 | 0.38 | 0.38 | 50 | 1020.0 |
| 20260831183548 | 59 | 314 | 0.0 | 2.0 | 0.00 | 0.38 | 0.38 | 46 | 1019.8 |
| 20260831182649 | 59 | 314 | 0.0 | 2.0 | 0.00 | 0.38 | 0.38 | 43 | 1019.5 |
| 20260831181749 | 60 | 314 | 0.0 | 2.0 | 0.00 | 0.38 | 0.38 | 40 | 1019.4 |
| 20260831180848 | 61 | 314 | 0.0 | 2.0 | 0.00 | 0.38 | 0.38 | 37 | 1019.3 |
| 20260831175948 | 62 | 315 | 0.0 | 2.0 | 0.00 | 0.38 | 0.38 | 35 | 1019.1 |
| 20260831175048 | 63 | 314 | 0.0 | 2.0 | 0.00 | 0.38 | 0.38 | 31 | 1019.3 |
| 20260831174148 | 64 | 314 | 0.0 | 1.0 | 0.00 | 0.38 | 0.38 | 29 | 1019.0 |
| 20260831173248 | 65 | 314 | 0.0 | 1.0 | 0.00 | 0.38 | 0.38 | 26 | 1019.0 |
| 20260831172348 | 66 | 314 | 0.0 | 1.0 | 0.00 | 0.38 | 0.38 | 23 | 1019.0 |
| 20260831171448 | 68 | 314 | 0.0 | 2.0 | 0.00 | 0.38 | 0.38 | 18 | 1018.8 |
| 20260831170548 | 69 | 314 | 0.0 | 2.0 | 0.00 | 0.38 | 0.38 | 15 | 1018.8 |
| 20260831165648 | 69 | 314 | 0.0 | 2.0 | 0.00 | 0.38 | 0.38 | 15 | 1018.6 |
| 20260831164748 | 70 | 318 | 0.0 | 3.0 | 0.00 | 0.38 | 0.38 | 14 | 1018.7 |
| 20260831163848 | 70 | 314 | 0.0 | 2.0 | 0.00 | 0.38 | 0.38 | 13 | 1018.8 |
| 20260831162948 | 71 | 339 | 0.0 | 2.0 | 0.00 | 0.38 | 0.38 | 11 | 1018.8 |
| 20260831162048 | 72 | 1 | 0.0 | 4.0 | 0.00 | 0.38 | 0.38 | 10 | 1018.8 |
| 20260831161148 | 74 | 327 | 1.0 | 7.0 | 0.00 | 0.38 | 0.38 | 10 | 1018.7 |
| 20260831160248 | 76 | 291 | 1.0 | 7.0 | 0.00 | 0.38 | 0.38 | 10 | 1018.9 |
| 20260831155348 | 76 | 310 | 1.0 | 4.0 | 0.00 | 0.38 | 0.38 | 10 | 1018.9 |
| 20260831154448 | 75 | 296 | 1.0 | 4.0 | 0.00 | 0.38 | 0.38 | 10 | 1018.8 |
| 20260831153548 | 78 | 309 | 2.0 | 5.0 | 0.00 | 0.38 | 0.38 | 10 | 1018.9 |
| 20260831152648 | 78 | 332 | 2.0 | 6.0 | 0.00 | 0.38 | 0.38 | 10 | 1018.9 |
| 20260831150848 | 78 | 265 | 1.0 | 4.0 | 0.00 | 0.38 | 0.38 | 10 | 1019.1 |
| 20260831145948 | 77 | 257 | 0.0 | 6.0 | 0.00 | 0.38 | 0.38 | 10 | 1019.1 |
| 20260831145048 | 78 | 272 | 2.0 | 8.0 | 0.00 | 0.38 | 0.38 | 10 | 1019.1 |
| 20260831144148 | 76 | 198 | 0.0 | 4.0 | 0.00 | 0.38 | 0.38 | 10 | 1019.1 |
| 20260831143248 | 76 | 324 | 0.0 | 8.0 | 0.00 | 0.38 | 0.38 | 10 | 1019.3 |
| 20260831141448 | 76 | 318 | 2.0 | 6.0 | 0.00 | 0.38 | 0.38 | 10 | 1019.2 |
| 20260831140548 | 77 | 330 | 2.0 | 7.0 | 0.00 | 0.38 | 0.38 | 10 | 1019.2 |
| 20260831135648 | 78 | 328 | 2.0 | 5.0 | 0.00 | 0.38 | 0.38 | 10 | 1019.1 |
| 20260831134748 | 78 | 296 | 1.0 | 8.0 | 0.00 | 0.38 | 0.38 | 10 | 1019.0 |
| 20260831133848 | 78 | 279 | 2.0 | 8.0 | 0.00 | 0.38 | 0.38 | 10 | 1019.2 |
| 20260831132948 | 76 | 299 | 2.0 | 8.0 | 0.00 | 0.38 | 0.38 | 10 | 1019.1 |
| 20260831131148 | 72 | 298 | 2.0 | 11.0 | 0.00 | 0.38 | 0.38 | 17 | 1019.2 |
| 20260831130248 | 72 | 270 | 1.0 | 6.0 | 0.00 | 0.38 | 0.38 | 20 | 1019.4 |
| 20260831125348 | 73 | 301 | 0.0 | 4.0 | 0.00 | 0.38 | 0.38 | 20 | 1019.3 |
| 20260831124449 | 73 | 329 | 0.0 | 8.0 | 0.00 | 0.38 | 0.38 | 20 | 1019.3 |
| 20260831123548 | 71 | 317 | 1.0 | 8.0 | 0.00 | 0.38 | 0.38 | 23 | 1019.4 |
| 20260831122648 | 72 | 316 | 2.0 | 8.0 | 0.00 | 0.38 | 0.38 | 23 | 1019.4 |
| 20260831121748 | 72 | 324 | 3.0 | 7.0 | 0.00 | 0.38 | 0.38 | 26 | 1019.3 |
| 20260831120848 | 72 | 281 | 2.0 | 6.0 | 0.00 | 0.38 | 0.38 | 23 | 1019.3 |
| 20260831115948 | 75 | 320 | 2.0 | 8.0 | 0.00 | 0.38 | 0.38 | 22 | 1019.2 |
| 20260831115048 | 75 | 331 | 2.0 | 8.0 | 0.00 | 0.38 | 0.38 | 21 | 1019.4 |
| 20260831114148 | 75 | 309 | 3.0 | 8.0 | 0.00 | 0.38 | 0.38 | 23 | 1019.1 |
| 20260831113248 | 72 | 341 | 2.0 | 8.0 | 0.00 | 0.38 | 0.38 | 28 | 1019.3 |
| 20260831112348 | 71 | 302 | 2.0 | 6.0 | 0.00 | 0.38 | 0.38 | 30 | 1019.3 |
| 20260831111448 | 74 | 216 | 2.0 | 8.0 | 0.00 | 0.38 | 0.38 | 25 | 1019.3 |
| 20260831110548 | 75 | 218 | 1.0 | 7.0 | 0.00 | 0.38 | 0.38 | 28 | 1019.3 |
| 20260831105648 | 74 | 293 | 2.0 | 14.0 | 0.00 | 0.38 | 0.38 | 33 | 1019.3 |
| 20260831103848 | 73 | 300 | 2.0 | 13.0 | 0.00 | 0.38 | 0.38 | 37 | 1019.3 |
| 20260831102048 | 72 | 291 | 0.0 | 8.0 | 0.00 | 0.38 | 0.38 | 41 | 1019.4 |
| 20260831101148 | 72 | 318 | 2.0 | 10.0 | 0.00 | 0.38 | 0.38 | 45 | 1019.3 |
| 20260831100248 | 72 | 281 | 1.0 | 10.0 | 0.00 | 0.38 | 0.38 | 44 | 1019.3 |
| 20260831095348 | 71 | 319 | 2.0 | 8.0 | 0.00 | 0.38 | 0.38 | 52 | 1019.2 |
| 20260831094448 | 71 | 312 | 3.0 | 9.0 | 0.00 | 0.38 | 0.38 | 58 | 1019.1 |
| 20260831093548 | 69 | 320 | 2.0 | 8.0 | 0.00 | 0.38 | 0.38 | 69 | 1019.2 |
| 20260831091748 | 65 | 312 | 2.0 | 7.0 | 0.01 | 0.38 | 0.38 | 70 | 1019.3 |
| 20260831085948 | 66 | 315 | 2.0 | 5.0 | 0.01 | 0.38 | 0.38 | 68 | 1019.5 |
| 20260831085048 | 67 | 320 | 0.0 | 6.0 | 0.01 | 0.38 | 0.38 | 67 | 1019.4 |
| 20260831082348 | 71 | 313 | 3.0 | 8.0 | 0.01 | 0.38 | 0.38 | 66 | 1019.0 |
| 20260831080548 | 69 | 310 | 1.0 | 4.0 | 0.00 | 0.37 | 0.37 | 99 | 1018.8 |
| 20260831075648 | 67 | 314 | 2.0 | 5.0 | 0.00 | 0.37 | 0.37 | 99 | 1018.5 |
| 20260831074748 | 63 | 318 | 0.0 | 6.0 | 0.01 | 0.37 | 0.37 | 99 | 1018.5 |
| 20260831073848 | 63 | 348 | 2.0 | 6.0 | 0.02 | 0.37 | 0.37 | 99 | 1018.2 |
| 20260831072948 | 62 | 316 | 0.0 | 4.0 | 0.06 | 0.37 | 0.37 | 99 | 1018.3 |